Window Rock, AZ

5:56 AM MDT on April 21, 2018 (GMT -0600)
Window Rock

Weather History for KRQE - June, 2012

Change the Weather History Date:

Saturday, June 23, 2012

  Actual Average Record
Temperature  
Mean Temperature 68 °F -  
Max Temperature 91 °F 85 °F 99 °F (1990)
Min Temperature 46 °F 50 °F 35 °F (1964)
Cooling Degree Days 4    
Growing Degree Days 18 (Base 50)    
Moisture  
Dew Point 26 °F    
Average Humidity 20    
Maximum Humidity 34    
Minimum Humidity 8    
Precipitation  
Precipitation 0.00 in - - ()
Sea Level Pressure  
Sea Level Pressure 29.75 in    
Wind  
Wind Speed 3 mph (South)    
Max Wind Speed 20 mph    
Max Gust Speed 38 mph    
Visibility 10 miles    
Events      
Averages and records for this station are not official NWS values.
T = Trace of Precipitation, MM = Missing Value Source: NWS Daily Summary

Daily Weather History Graph

Daily Weather History Graph

Search for Another Location

Airport or City:

Astronomy

Jun. 23, 2012 Rise Set
Actual Time 6:01 AM MDT 8:35 PM MDT
Civil Twilight 5:31 AM MDT 9:05 PM MDT
Nautical Twilight 4:54 AM MDT 9:43 PM MDT
Astronomical Twilight 4:12 AM MDT 10:24 PM MDT
Moon 9:58 AM MDT (6/23) 11:15 PM MDT (6/23)
Length of Visible Light 15h 34m
Length of Day
14h 34m
Waxing Crescent, 16% of the Moon is Illuminated
Jun 23
Waxing Crescent
Jun 26
First Quarter
Jul 3
Full
Jul 10
Last Quarter
Jul 18
New

Hourly Weather History & Observations

Time (MDT) Temp. Dew Point Humidity Pressure Visibility Wind Dir Wind Speed Gust Speed Precip Events Conditions
12:53 AM 66.9 °F 19.9 °F 17% 29.66 in 10.0 mi Variable 3.5 mph - N/A   Clear
1:53 AM 62.1 °F 19.9 °F 20% 29.68 in 10.0 mi Calm Calm - N/A   Clear
2:53 AM 54.0 °F 19.9 °F 26% 29.70 in 10.0 mi Calm Calm - N/A   Clear
3:53 AM 53.1 °F 19.0 °F 26% 29.71 in 10.0 mi Calm Calm - N/A   Clear
4:53 AM 50.0 °F 18.0 °F 28% 29.73 in 10.0 mi Calm Calm - N/A   Clear
5:53 AM 46.0 °F 19.0 °F 34% 29.76 in 10.0 mi Calm Calm - N/A   Clear
6:53 AM 50.0 °F 19.9 °F 31% 29.77 in 10.0 mi Calm Calm - N/A   Clear
7:53 AM 60.1 °F 19.9 °F 21% 29.75 in 10.0 mi Calm Calm - N/A   Clear
8:53 AM 69.1 °F 19.9 °F 15% 29.74 in 10.0 mi Calm Calm - N/A   Clear
9:53 AM 80.1 °F 25.0 °F 13% 29.72 in 10.0 mi South 9.2 mph - N/A   Clear
10:53 AM 84.9 °F 21.9 °F 10% 29.69 in 10.0 mi Variable 5.8 mph - N/A   Clear
11:53 AM 87.1 °F 19.9 °F 8% 29.70 in 10.0 mi West 9.2 mph 23.0 mph N/A   Clear
12:53 PM 89.1 °F 21.9 °F 9% 29.69 in 10.0 mi Variable 5.8 mph 19.6 mph N/A   Clear
1:53 PM 91.0 °F 23.0 °F 8% 29.69 in 10.0 mi South 13.8 mph 24.2 mph N/A   Clear
2:53 PM 91.0 °F 21.9 °F 8% 29.70 in 10.0 mi SW 8.1 mph 19.6 mph N/A   Clear
3:53 PM 91.0 °F 21.9 °F 8% 29.68 in 10.0 mi WSW 9.2 mph 17.3 mph N/A   Clear
4:53 PM 88.0 °F 23.0 °F 9% 29.73 in 10.0 mi Variable 3.5 mph 16.1 mph N/A   Clear
5:15 PM 78.8 °F 37.4 °F 23% 30.11 in 7.0 mi SE 19.6 mph 38.0 mph N/A   Partly Cloudy
5:53 PM 80.1 °F 36.0 °F 20% 29.80 in 10.0 mi SE 11.5 mph 28.8 mph 0.00 in   Scattered Clouds
6:53 PM 80.1 °F 36.0 °F 20% 29.79 in 10.0 mi Variable 6.9 mph 16.1 mph N/A   Clear
7:53 PM 80.1 °F 33.1 °F 18% 29.75 in 10.0 mi SSE 4.6 mph - N/A   Clear
8:53 PM 78.1 °F 33.1 °F 19% 29.74 in 10.0 mi South 10.4 mph - N/A   Clear
9:53 PM 75.0 °F 37.0 °F 25% 29.74 in 10.0 mi Variable 3.5 mph - N/A   Clear
10:53 PM 72.0 °F 37.0 °F 28% 29.75 in 10.0 mi Variable 3.5 mph - N/A   Clear
11:53 PM 70.0 °F 37.0 °F 30% 29.75 in 10.0 mi Calm Calm - N/A   Clear